Location: Ebendorf
(52.1827°N, 11.5706°E)
Time: 10:22:33
(UTC+00:00)

CZ-2D R/B - Pass Details

Date: 15 May 2021
Orbit: 553 x 637 km, 97.9° (Epoch: 20 June)

Event Time Altitude Azimuth Distance (km) Brightness Sun altitude
Rises 02:31:03 0° 17° (NNE) 2,928 8.2 -6.6°
Reaches altitude 10° 02:33:17 10° 21° (NNE) 2,024 7.4 -6.4°
Maximum altitude 02:37:39 59° 101° (E) 741 4.2 -5.9°
Drops below altitude 10° 02:42:01 10° 181° (S) 2,024 5.8 -5.4°
Sets 02:44:15 0° 185° (S) 2,927 6.6 -5.1°
